Year,Month,Day,Hour,Minute,Value (Times are PST for temperature in C)
2011,08,21,00,00,15.00
2011,08,21,00,01,15.00
2011,08,21,00,02,15.00
2011,08,21,00,03,15.00
2011,08,21,00,04,15.00
2011,08,21,00,05,15.00
2011,08,21,00,06,15.00
2011,08,21,00,07,15.00
2011,08,21,00,08,14.90
2011,08,21,00,09,14.90
2011,08,21,00,10,14.90
2011,08,21,00,11,14.90
2011,08,21,00,12,14.90
2011,08,21,00,13,14.80
2011,08,21,00,14,14.80
2011,08,21,00,15,14.80
2011,08,21,00,16,14.80
2011,08,21,00,17,14.80
2011,08,21,00,18,14.80
2011,08,21,00,19,14.80
2011,08,21,00,20,14.80
2011,08,21,00,21,14.80
2011,08,21,00,22,14.80
2011,08,21,00,23,14.80
2011,08,21,00,24,14.80
2011,08,21,00,25,14.80
2011,08,21,00,26,14.80
2011,08,21,00,27,14.80
2011,08,21,00,28,14.80
2011,08,21,00,29,14.80
2011,08,21,00,30,14.80
2011,08,21,00,31,14.70
2011,08,21,00,32,14.70
2011,08,21,00,33,14.70
2011,08,21,00,34,14.70
2011,08,21,00,35,14.70
2011,08,21,00,36,14.70
2011,08,21,00,37,14.70
2011,08,21,00,38,14.70
2011,08,21,00,39,14.70
2011,08,21,00,40,14.70
2011,08,21,00,41,14.70
2011,08,21,00,42,14.70
2011,08,21,00,43,14.70
2011,08,21,00,44,14.70
2011,08,21,00,45,14.70
2011,08,21,00,46,14.60
2011,08,21,00,47,14.60
2011,08,21,00,48,14.60
2011,08,21,00,49,14.60
2011,08,21,00,50,14.60
2011,08,21,00,51,14.60
2011,08,21,00,52,14.50
2011,08,21,00,53,14.50
2011,08,21,00,54,14.50
2011,08,21,00,55,14.50
2011,08,21,00,56,14.50
2011,08,21,00,57,14.50
2011,08,21,00,58,14.50
2011,08,21,00,59,14.40
2011,08,21,01,00,14.40
2011,08,21,01,01,14.40
2011,08,21,01,02,14.40
2011,08,21,01,03,14.40
2011,08,21,01,04,14.40
2011,08,21,01,05,14.40
2011,08,21,01,06,14.30
2011,08,21,01,07,14.30
2011,08,21,01,08,14.30
2011,08,21,01,09,14.30
2011,08,21,01,10,14.30
2011,08,21,01,11,14.30
2011,08,21,01,12,14.20
2011,08,21,01,13,14.20
2011,08,21,01,14,14.20
2011,08,21,01,15,14.20
2011,08,21,01,16,14.20
2011,08,21,01,17,14.20
2011,08,21,01,18,14.20
2011,08,21,01,19,14.20
2011,08,21,01,20,14.20
2011,08,21,01,21,14.20
2011,08,21,01,22,14.20
2011,08,21,01,23,14.20
2011,08,21,01,24,14.20
2011,08,21,01,25,14.20
2011,08,21,01,26,14.20
2011,08,21,01,27,14.20
2011,08,21,01,28,14.20
2011,08,21,01,29,14.20
2011,08,21,01,30,14.20
2011,08,21,01,31,14.20
2011,08,21,01,32,14.20
2011,08,21,01,33,14.20
2011,08,21,01,34,14.20
2011,08,21,01,35,14.20
2011,08,21,01,36,14.20
2011,08,21,01,37,14.20
2011,08,21,01,38,14.20
2011,08,21,01,39,14.20
2011,08,21,01,40,14.20
2011,08,21,01,41,14.20
2011,08,21,01,42,14.20
2011,08,21,01,43,14.20
2011,08,21,01,44,14.20
2011,08,21,01,45,14.20
2011,08,21,01,46,14.20
2011,08,21,01,47,14.20
2011,08,21,01,48,14.20
2011,08,21,01,49,14.20
2011,08,21,01,50,14.20
2011,08,21,01,51,14.20
2011,08,21,01,52,14.20
2011,08,21,01,53,14.20
2011,08,21,01,54,14.20
2011,08,21,01,55,14.20
2011,08,21,01,56,14.30
2011,08,21,01,57,14.30
2011,08,21,01,58,14.30
2011,08,21,01,59,14.30
2011,08,21,02,00,14.30
2011,08,21,02,01,14.30
2011,08,21,02,02,14.30
2011,08,21,02,03,14.30
2011,08,21,02,04,14.30
2011,08,21,02,05,14.40
2011,08,21,02,06,14.40
2011,08,21,02,07,14.40
2011,08,21,02,08,14.40
2011,08,21,02,09,14.40
2011,08,21,02,10,14.40
2011,08,21,02,11,14.40
2011,08,21,02,12,14.40
2011,08,21,02,13,14.40
2011,08,21,02,14,14.40
2011,08,21,02,15,14.40
2011,08,21,02,16,14.40
2011,08,21,02,17,14.40
2011,08,21,02,18,14.30
2011,08,21,02,19,14.30
2011,08,21,02,20,14.30
2011,08,21,02,21,14.30
2011,08,21,02,22,14.30
2011,08,21,02,23,14.30
2011,08,21,02,24,14.30
2011,08,21,02,25,14.30
2011,08,21,02,26,14.30
2011,08,21,02,27,14.30
2011,08,21,02,28,14.30
2011,08,21,02,29,14.40
2011,08,21,02,30,14.40
2011,08,21,02,31,14.40
2011,08,21,02,32,14.40
2011,08,21,02,33,14.40
2011,08,21,02,34,14.40
2011,08,21,02,35,14.40
2011,08,21,02,36,14.40
2011,08,21,02,37,14.40
2011,08,21,02,38,14.30
2011,08,21,02,39,14.30
2011,08,21,02,40,14.30
2011,08,21,02,41,14.30
2011,08,21,02,42,14.30
2011,08,21,02,43,14.30
2011,08,21,02,44,14.30
2011,08,21,02,45,14.30
2011,08,21,02,46,14.30
2011,08,21,02,47,14.30
2011,08,21,02,48,14.30
2011,08,21,02,49,14.30
2011,08,21,02,50,14.30
2011,08,21,02,51,14.30
2011,08,21,02,52,14.30
2011,08,21,02,53,14.30
2011,08,21,02,54,14.30
2011,08,21,02,55,14.30
2011,08,21,02,56,14.30
2011,08,21,02,57,14.30
2011,08,21,02,58,14.30
2011,08,21,02,59,14.30
2011,08,21,03,00,14.30
2011,08,21,03,01,14.30
2011,08,21,03,02,14.30
2011,08,21,03,03,14.30
2011,08,21,03,04,14.30
2011,08,21,03,05,14.30
2011,08,21,03,06,14.30
2011,08,21,03,07,14.30
2011,08,21,03,08,14.30
2011,08,21,03,09,14.30
2011,08,21,03,10,14.30
2011,08,21,03,11,14.40
2011,08,21,03,12,14.40
2011,08,21,03,13,14.40
2011,08,21,03,14,14.40
2011,08,21,03,15,14.40
2011,08,21,03,16,14.40
2011,08,21,03,17,14.40
2011,08,21,03,18,14.40
2011,08,21,03,19,14.40
2011,08,21,03,20,14.40
2011,08,21,03,21,14.40
2011,08,21,03,22,14.50
2011,08,21,03,23,14.50
2011,08,21,03,24,14.50
2011,08,21,03,25,14.50
2011,08,21,03,26,14.50
2011,08,21,03,27,14.50
2011,08,21,03,28,14.50
2011,08,21,03,29,14.50
2011,08,21,03,30,14.50
2011,08,21,03,31,14.50
2011,08,21,03,32,14.50
2011,08,21,03,33,14.50
2011,08,21,03,34,14.50
2011,08,21,03,35,14.50
2011,08,21,03,36,14.50
2011,08,21,03,37,14.50
2011,08,21,03,38,14.50
2011,08,21,03,39,14.50
2011,08,21,03,40,14.50
2011,08,21,03,41,14.50
2011,08,21,03,42,14.50
2011,08,21,03,43,14.50
2011,08,21,03,44,14.50
2011,08,21,03,45,14.50
2011,08,21,03,46,14.50
2011,08,21,03,47,14.50
2011,08,21,03,48,14.50
2011,08,21,03,49,14.40
2011,08,21,03,50,14.40
2011,08,21,03,51,14.40
2011,08,21,03,52,14.40
2011,08,21,03,53,14.40
2011,08,21,03,54,14.40
2011,08,21,03,55,14.40
2011,08,21,03,56,14.40
2011,08,21,03,57,14.40
2011,08,21,03,58,14.30
2011,08,21,03,59,14.30
2011,08,21,04,00,14.30
2011,08,21,04,01,14.30
2011,08,21,04,02,14.30
2011,08,21,04,03,14.30
2011,08,21,04,04,14.20
2011,08,21,04,05,14.20
2011,08,21,04,06,14.20
2011,08,21,04,07,14.20
2011,08,21,04,08,14.20
2011,08,21,04,09,14.20
2011,08,21,04,10,14.20
2011,08,21,04,11,14.20
2011,08,21,04,12,14.20
2011,08,21,04,13,14.20
2011,08,21,04,14,14.20
2011,08,21,04,15,14.20
2011,08,21,04,16,14.20
2011,08,21,04,17,14.20
2011,08,21,04,18,14.20
2011,08,21,04,19,14.20
2011,08,21,04,20,14.20
2011,08,21,04,21,14.20
2011,08,21,04,22,14.20
2011,08,21,04,23,14.20
2011,08,21,04,24,14.20
2011,08,21,04,25,14.10
2011,08,21,04,26,14.10
2011,08,21,04,27,14.10
2011,08,21,04,28,14.10
2011,08,21,04,29,14.10
2011,08,21,04,30,14.10
2011,08,21,04,31,14.10
2011,08,21,04,32,14.00
2011,08,21,04,33,14.00
2011,08,21,04,34,14.00
2011,08,21,04,35,14.00
2011,08,21,04,36,14.00
2011,08,21,04,37,14.00
2011,08,21,04,38,14.00
2011,08,21,04,39,14.00
2011,08,21,04,40,14.00
2011,08,21,04,41,14.00
2011,08,21,04,42,14.00
2011,08,21,04,43,14.00
2011,08,21,04,44,14.00
2011,08,21,04,45,14.00
2011,08,21,04,46,14.00
2011,08,21,04,47,14.00
2011,08,21,04,48,14.00
2011,08,21,04,49,14.00
2011,08,21,04,50,14.00
2011,08,21,04,51,14.00
2011,08,21,04,52,14.00
2011,08,21,04,53,14.00
2011,08,21,04,54,14.00
2011,08,21,04,55,14.00
2011,08,21,04,56,14.00
2011,08,21,04,57,14.00
2011,08,21,04,58,14.00
2011,08,21,04,59,14.00
2011,08,21,05,00,14.00
2011,08,21,05,01,14.00
2011,08,21,05,02,14.00
2011,08,21,05,03,14.00
2011,08,21,05,04,14.00
2011,08,21,05,05,14.00
2011,08,21,05,06,14.00
2011,08,21,05,07,14.00
2011,08,21,05,08,14.00
2011,08,21,05,09,14.00
2011,08,21,05,10,14.00
2011,08,21,05,11,14.00
2011,08,21,05,12,14.00
2011,08,21,05,13,14.00
2011,08,21,05,14,14.00
2011,08,21,05,15,14.00
2011,08,21,05,16,14.00
2011,08,21,05,17,14.00
2011,08,21,05,18,14.00
2011,08,21,05,19,14.00
2011,08,21,05,20,14.00
2011,08,21,05,21,14.00
2011,08,21,05,22,14.00
2011,08,21,05,23,14.00
2011,08,21,05,24,14.00
2011,08,21,05,25,14.00
2011,08,21,05,26,14.00
2011,08,21,05,27,14.00
2011,08,21,05,28,14.00
2011,08,21,05,29,14.00
2011,08,21,05,30,14.00
2011,08,21,05,31,14.00
2011,08,21,05,32,14.00
2011,08,21,05,33,14.00
2011,08,21,05,34,13.90
2011,08,21,05,35,13.90
2011,08,21,05,36,13.90
2011,08,21,05,37,13.90
2011,08,21,05,38,13.90
2011,08,21,05,39,13.90
2011,08,21,05,40,13.90
2011,08,21,05,41,13.90
2011,08,21,05,42,13.90
2011,08,21,05,43,13.90
2011,08,21,05,44,13.80
2011,08,21,05,45,13.80
2011,08,21,05,46,13.80
2011,08,21,05,47,13.80
2011,08,21,05,48,13.80
2011,08,21,05,49,13.80
2011,08,21,05,50,13.80
2011,08,21,05,51,13.80
2011,08,21,05,52,13.80
2011,08,21,05,53,13.80
2011,08,21,05,54,13.80
2011,08,21,05,55,13.80
2011,08,21,05,56,13.80
2011,08,21,05,57,13.80
2011,08,21,05,58,13.80
2011,08,21,05,59,13.80
2011,08,21,06,00,13.80
2011,08,21,06,01,13.80
2011,08,21,06,02,13.80
2011,08,21,06,03,13.80
2011,08,21,06,04,13.80
2011,08,21,06,05,13.80
2011,08,21,06,06,13.80
2011,08,21,06,07,13.80
2011,08,21,06,08,13.70
2011,08,21,06,09,13.70
2011,08,21,06,10,13.70
2011,08,21,06,11,13.70
2011,08,21,06,12,13.70
2011,08,21,06,13,13.70
2011,08,21,06,14,13.70
2011,08,21,06,15,13.70
2011,08,21,06,16,13.70
2011,08,21,06,17,13.70
2011,08,21,06,18,13.70
2011,08,21,06,19,13.70
2011,08,21,06,20,13.70
2011,08,21,06,21,13.70
2011,08,21,06,22,13.70
2011,08,21,06,23,13.70
2011,08,21,06,24,13.70
2011,08,21,06,25,13.70
2011,08,21,06,26,13.70
2011,08,21,06,27,13.70
2011,08,21,06,28,13.70
2011,08,21,06,29,13.70
2011,08,21,06,30,13.70
2011,08,21,06,31,13.70
2011,08,21,06,32,13.70
2011,08,21,06,33,13.70
2011,08,21,06,34,13.70
2011,08,21,06,35,13.70
2011,08,21,06,36,13.70
2011,08,21,06,37,13.70
2011,08,21,06,38,13.70
2011,08,21,06,39,13.70
2011,08,21,06,40,13.70
2011,08,21,06,41,13.70
2011,08,21,06,42,13.70
2011,08,21,06,43,13.70
2011,08,21,06,44,13.70
2011,08,21,06,45,13.70
2011,08,21,06,46,13.70
2011,08,21,06,47,13.70
2011,08,21,06,48,13.70
2011,08,21,06,49,13.70
2011,08,21,06,50,13.70
2011,08,21,06,51,13.70
2011,08,21,06,52,13.70
2011,08,21,06,53,13.70
2011,08,21,06,54,13.70
2011,08,21,06,55,13.70
2011,08,21,06,56,13.70
2011,08,21,06,57,13.70
2011,08,21,06,58,13.70
2011,08,21,06,59,13.70
2011,08,21,07,00,13.70
2011,08,21,07,01,13.80
2011,08,21,07,02,13.80
2011,08,21,07,03,13.80
2011,08,21,07,04,13.80
2011,08,21,07,05,13.80
2011,08,21,07,06,13.80
2011,08,21,07,07,13.80
2011,08,21,07,08,13.80
2011,08,21,07,09,13.80
2011,08,21,07,10,13.80
2011,08,21,07,11,13.80
2011,08,21,07,12,13.80
2011,08,21,07,13,13.80
2011,08,21,07,14,13.80
2011,08,21,07,15,13.80
2011,08,21,07,16,13.80
2011,08,21,07,17,13.90
2011,08,21,07,18,13.90
2011,08,21,07,19,13.90
2011,08,21,07,20,13.90
2011,08,21,07,21,14.00
2011,08,21,07,22,14.00
2011,08,21,07,23,14.00
2011,08,21,07,24,14.00
2011,08,21,07,25,14.00
2011,08,21,07,26,14.00
2011,08,21,07,27,14.10
2011,08,21,07,28,14.10
2011,08,21,07,29,14.20
2011,08,21,07,30,14.20
2011,08,21,07,31,14.20
2011,08,21,07,32,14.20
2011,08,21,07,33,14.20
2011,08,21,07,34,14.30
2011,08,21,07,35,14.30
2011,08,21,07,36,14.40
2011,08,21,07,37,14.40
2011,08,21,07,38,14.40
2011,08,21,07,39,14.50
2011,08,21,07,40,14.50
2011,08,21,07,41,14.50
2011,08,21,07,42,14.60
2011,08,21,07,43,14.60
2011,08,21,07,44,14.60
2011,08,21,07,45,14.70
2011,08,21,07,46,14.70
2011,08,21,07,47,14.70
2011,08,21,07,48,14.70
2011,08,21,07,49,14.80
2011,08,21,07,50,14.80
2011,08,21,07,51,14.80
2011,08,21,07,52,14.80
2011,08,21,07,53,14.80
2011,08,21,07,54,14.80
2011,08,21,07,55,14.90
2011,08,21,07,56,14.90
2011,08,21,07,57,15.00
2011,08,21,07,58,15.00
2011,08,21,07,59,15.10
2011,08,21,08,00,15.10
2011,08,21,08,01,15.10
2011,08,21,08,02,15.20
2011,08,21,08,03,15.20
2011,08,21,08,04,15.20
2011,08,21,08,05,15.30
2011,08,21,08,06,15.30
2011,08,21,08,07,15.30
2011,08,21,08,08,15.40
2011,08,21,08,09,15.50
2011,08,21,08,10,15.50
2011,08,21,08,11,15.60
2011,08,21,08,12,15.60
2011,08,21,08,13,15.70
2011,08,21,08,14,15.70
2011,08,21,08,15,15.80
2011,08,21,08,16,15.80
2011,08,21,08,17,15.90
2011,08,21,08,18,15.90
2011,08,21,08,19,16.00
2011,08,21,08,20,16.10
2011,08,21,08,21,16.20
2011,08,21,08,22,16.20
2011,08,21,08,23,16.30
2011,08,21,08,24,16.40
2011,08,21,08,25,16.40
2011,08,21,08,26,16.50
2011,08,21,08,27,16.60
2011,08,21,08,28,16.70
2011,08,21,08,29,16.70
2011,08,21,08,30,16.80
2011,08,21,08,31,16.90
2011,08,21,08,32,17.00
2011,08,21,08,33,17.00
2011,08,21,08,34,17.10
2011,08,21,08,35,17.20
2011,08,21,08,36,17.20
2011,08,21,08,37,17.30
2011,08,21,08,38,17.30
2011,08,21,08,39,17.40
2011,08,21,08,40,17.50
2011,08,21,08,41,17.50
2011,08,21,08,42,17.60
2011,08,21,08,43,17.70
2011,08,21,08,44,17.80
2011,08,21,08,45,17.90
2011,08,21,08,46,17.90
2011,08,21,08,47,17.90
2011,08,21,08,48,18.00
2011,08,21,08,49,18.10
2011,08,21,08,50,18.20
2011,08,21,08,51,18.20
2011,08,21,08,52,18.30
2011,08,21,08,53,18.50
2011,08,21,08,54,18.50
2011,08,21,08,55,18.60
2011,08,21,08,56,18.70
2011,08,21,08,57,18.80
2011,08,21,08,58,18.90
2011,08,21,08,59,19.00
2011,08,21,09,00,19.10
2011,08,21,09,01,19.20
2011,08,21,09,02,19.30
2011,08,21,09,03,19.40
2011,08,21,09,04,19.50
2011,08,21,09,05,19.60
2011,08,21,09,06,19.60
2011,08,21,09,07,19.70
2011,08,21,09,08,19.80
2011,08,21,09,09,19.90
2011,08,21,09,10,19.90
2011,08,21,09,11,20.00
2011,08,21,09,12,20.10
2011,08,21,09,13,20.10
2011,08,21,09,14,20.20
2011,08,21,09,15,20.30
2011,08,21,09,16,20.30
2011,08,21,09,17,20.40
2011,08,21,09,18,20.40
2011,08,21,09,19,20.50
2011,08,21,09,20,20.60
2011,08,21,09,21,20.60
2011,08,21,09,22,20.70
2011,08,21,09,23,20.80
2011,08,21,09,24,20.90
2011,08,21,09,25,21.00
2011,08,21,09,26,21.10
2011,08,21,09,27,21.30
2011,08,21,09,28,21.40
2011,08,21,09,29,21.60
2011,08,21,09,30,21.60
2011,08,21,09,31,21.80
2011,08,21,09,32,22.00
2011,08,21,09,33,22.10
2011,08,21,09,34,22.20
2011,08,21,09,35,22.30
2011,08,21,09,36,22.40
2011,08,21,09,37,22.40
2011,08,21,09,38,22.40
2011,08,21,09,39,22.40
2011,08,21,09,40,22.40
2011,08,21,09,41,22.40
2011,08,21,09,42,22.40
2011,08,21,09,43,22.40
2011,08,21,09,44,22.40
2011,08,21,09,45,22.40
2011,08,21,09,46,22.30
2011,08,21,09,47,22.30
2011,08,21,09,48,22.30
2011,08,21,09,49,22.30
2011,08,21,09,50,22.30
2011,08,21,09,51,22.40
2011,08,21,09,52,22.40
2011,08,21,09,53,22.50
2011,08,21,09,54,22.60
2011,08,21,09,55,22.60
2011,08,21,09,56,22.70
2011,08,21,09,57,22.60
2011,08,21,09,58,22.50
2011,08,21,09,59,22.50
2011,08,21,10,00,22.50
2011,08,21,10,01,22.50
2011,08,21,10,02,22.40
2011,08,21,10,03,22.30
2011,08,21,10,04,22.20
2011,08,21,10,05,22.20
2011,08,21,10,06,22.20
2011,08,21,10,07,22.20
2011,08,21,10,08,22.20
2011,08,21,10,09,22.30
2011,08,21,10,10,22.40
2011,08,21,10,11,22.40
2011,08,21,10,12,22.40
2011,08,21,10,13,22.50
2011,08,21,10,14,22.50
2011,08,21,10,15,22.40
2011,08,21,10,16,22.40
2011,08,21,10,17,22.40
2011,08,21,10,18,22.40
2011,08,21,10,19,22.50
2011,08,21,10,20,22.50
2011,08,21,10,21,22.50
2011,08,21,10,22,22.50
2011,08,21,10,23,22.50
2011,08,21,10,24,22.50
2011,08,21,10,25,22.40
2011,08,21,10,26,22.40
2011,08,21,10,27,22.40
2011,08,21,10,28,22.40
2011,08,21,10,29,22.40
2011,08,21,10,30,22.40
2011,08,21,10,31,22.40
2011,08,21,10,32,22.40
2011,08,21,10,33,22.40
2011,08,21,10,34,22.40
2011,08,21,10,35,22.40
2011,08,21,10,36,22.50
2011,08,21,10,37,22.50
2011,08,21,10,38,22.40
2011,08,21,10,39,22.40
2011,08,21,10,40,22.40
2011,08,21,10,41,22.40
2011,08,21,10,42,22.50
2011,08,21,10,43,22.50
2011,08,21,10,44,22.60
2011,08,21,10,45,22.80
2011,08,21,10,46,22.90
2011,08,21,10,47,23.00
2011,08,21,10,48,23.10
2011,08,21,10,49,23.20
2011,08,21,10,50,23.30
2011,08,21,10,51,23.40
2011,08,21,10,52,23.60
2011,08,21,10,53,23.50
2011,08,21,10,54,23.40
2011,08,21,10,55,23.40
2011,08,21,10,56,23.30
2011,08,21,10,57,23.20
2011,08,21,10,58,23.20
2011,08,21,10,59,23.20
2011,08,21,11,00,23.30
2011,08,21,11,01,23.30
2011,08,21,11,02,23.20
2011,08,21,11,03,23.20
2011,08,21,11,04,23.20
2011,08,21,11,05,23.30
2011,08,21,11,06,23.30
2011,08,21,11,07,23.30
2011,08,21,11,08,23.30
2011,08,21,11,09,23.30
2011,08,21,11,10,23.30
2011,08,21,11,11,23.20
2011,08,21,11,12,23.20
2011,08,21,11,13,23.20
2011,08,21,11,14,23.10
2011,08,21,11,15,22.90
2011,08,21,11,16,22.90
2011,08,21,11,17,22.90
2011,08,21,11,18,22.90
2011,08,21,11,19,23.00
2011,08,21,11,20,23.10
2011,08,21,11,21,23.10
2011,08,21,11,22,23.20
2011,08,21,11,23,23.30
2011,08,21,11,24,23.30
2011,08,21,11,25,23.40
2011,08,21,11,26,23.40
2011,08,21,11,27,23.50
2011,08,21,11,28,23.60
2011,08,21,11,29,23.60
2011,08,21,11,30,23.70
2011,08,21,11,31,23.70
2011,08,21,11,32,23.80
2011,08,21,11,33,23.80
2011,08,21,11,34,23.90
2011,08,21,11,35,24.00
2011,08,21,11,36,24.20
2011,08,21,11,37,24.30
2011,08,21,11,38,24.40
2011,08,21,11,39,24.40
2011,08,21,11,40,24.40
2011,08,21,11,41,24.40
2011,08,21,11,42,24.50
2011,08,21,11,43,24.60
2011,08,21,11,44,24.70
2011,08,21,11,45,24.80
2011,08,21,11,46,24.90
2011,08,21,11,47,25.10
2011,08,21,11,48,25.20
2011,08,21,11,49,25.30
2011,08,21,11,50,25.30
2011,08,21,11,51,25.40
2011,08,21,11,52,25.60
2011,08,21,11,53,25.70
2011,08,21,11,54,25.80
2011,08,21,11,55,25.90
2011,08,21,11,56,26.10
2011,08,21,11,57,26.20
2011,08,21,11,58,26.20
2011,08,21,11,59,26.30
2011,08,21,12,00,26.40
2011,08,21,12,01,26.40
2011,08,21,12,02,26.50
2011,08,21,12,03,26.60
2011,08,21,12,04,26.60
2011,08,21,12,05,26.60
2011,08,21,12,06,26.60
2011,08,21,12,07,26.60
2011,08,21,12,08,26.60
2011,08,21,12,09,26.60
2011,08,21,12,10,26.70
2011,08,21,12,11,26.80
2011,08,21,12,12,26.80
2011,08,21,12,13,26.90
2011,08,21,12,14,27.00
2011,08,21,12,15,27.20
2011,08,21,12,16,27.20
2011,08,21,12,17,27.30
2011,08,21,12,18,27.30
2011,08,21,12,19,27.30
2011,08,21,12,20,27.30
2011,08,21,12,21,27.40
2011,08,21,12,22,27.40
2011,08,21,12,23,27.40
2011,08,21,12,24,27.60
2011,08,21,12,25,27.60
2011,08,21,12,26,27.60
2011,08,21,12,27,27.60
2011,08,21,12,28,27.70
2011,08,21,12,29,27.70
2011,08,21,12,30,27.70
2011,08,21,12,31,27.70
2011,08,21,12,32,27.70
2011,08,21,12,33,27.60
2011,08,21,12,34,27.50
2011,08,21,12,35,27.40
2011,08,21,12,36,27.30
2011,08,21,12,37,27.30
2011,08,21,12,38,27.30
2011,08,21,12,39,27.30
2011,08,21,12,40,27.30
2011,08,21,12,41,27.30
2011,08,21,12,42,27.30
2011,08,21,12,43,27.20
2011,08,21,12,44,27.10
2011,08,21,12,45,27.10
2011,08,21,12,46,27.10
2011,08,21,12,47,27.00
2011,08,21,12,48,27.10
2011,08,21,12,49,27.10
2011,08,21,12,50,27.10
2011,08,21,12,51,27.10
2011,08,21,12,52,27.10
2011,08,21,12,53,26.90
2011,08,21,12,54,26.90
2011,08,21,12,55,27.00
2011,08,21,12,56,27.10
2011,08,21,12,57,27.00
2011,08,21,12,58,26.90
2011,08,21,12,59,26.90
2011,08,21,13,00,26.90
2011,08,21,13,01,26.90
2011,08,21,13,02,26.90
2011,08,21,13,03,26.90
2011,08,21,13,04,26.80
2011,08,21,13,05,26.80
2011,08,21,13,06,26.80
2011,08,21,13,07,26.80
2011,08,21,13,08,26.80
2011,08,21,13,09,26.70
2011,08,21,13,10,26.70
2011,08,21,13,11,26.70
2011,08,21,13,12,26.70
2011,08,21,13,13,26.70
2011,08,21,13,14,26.70
2011,08,21,13,15,26.70
2011,08,21,13,16,26.60
2011,08,21,13,17,26.60
2011,08,21,13,18,26.60
2011,08,21,13,19,26.60
2011,08,21,13,20,26.60
2011,08,21,13,21,26.60
2011,08,21,13,22,26.60
2011,08,21,13,23,26.60
2011,08,21,13,24,26.70
2011,08,21,13,25,26.70
2011,08,21,13,26,26.70
2011,08,21,13,27,26.70
2011,08,21,13,28,26.80
2011,08,21,13,29,26.80
2011,08,21,13,30,26.80
2011,08,21,13,31,26.90
2011,08,21,13,32,26.90
2011,08,21,13,33,27.00
2011,08,21,13,34,27.10
2011,08,21,13,35,27.10
2011,08,21,13,36,27.20
2011,08,21,13,37,27.10
2011,08,21,13,38,27.20
2011,08,21,13,39,27.20
2011,08,21,13,40,27.30
2011,08,21,13,41,27.30
2011,08,21,13,42,27.30
2011,08,21,13,43,27.40
2011,08,21,13,44,27.50
2011,08,21,13,45,27.60
2011,08,21,13,46,27.80
2011,08,21,13,47,27.90
2011,08,21,13,48,28.00
2011,08,21,13,49,28.00
2011,08,21,13,50,28.00
2011,08,21,13,51,28.00
2011,08,21,13,52,28.10
2011,08,21,13,53,28.10
2011,08,21,13,54,28.10
2011,08,21,13,55,28.20
2011,08,21,13,56,28.20
2011,08,21,13,57,28.30
2011,08,21,13,58,28.30
2011,08,21,13,59,28.40
2011,08,21,14,00,28.30
2011,08,21,14,01,28.30
2011,08,21,14,02,28.30
2011,08,21,14,03,28.40
2011,08,21,14,04,28.40
2011,08,21,14,05,28.30
2011,08,21,14,06,28.30
2011,08,21,14,07,28.20
2011,08,21,14,08,28.10
2011,08,21,14,09,28.10
2011,08,21,14,10,28.10
2011,08,21,14,11,28.20
2011,08,21,14,12,28.20
2011,08,21,14,13,28.30
2011,08,21,14,14,28.30
2011,08,21,14,15,28.30
2011,08,21,14,16,28.30
2011,08,21,14,17,28.20
2011,08,21,14,18,28.20
2011,08,21,14,19,28.20
2011,08,21,14,20,28.20
2011,08,21,14,21,28.20
2011,08,21,14,22,28.20
2011,08,21,14,23,28.10
2011,08,21,14,24,28.10
2011,08,21,14,25,28.10
2011,08,21,14,26,28.10
2011,08,21,14,27,28.20
2011,08,21,14,28,28.20
2011,08,21,14,29,28.20
2011,08,21,14,30,28.30
2011,08,21,14,31,28.30
2011,08,21,14,32,28.40
2011,08,21,14,33,28.40
2011,08,21,14,34,28.40
2011,08,21,14,35,28.50
2011,08,21,14,36,28.60
2011,08,21,14,37,28.70
2011,08,21,14,38,28.70
2011,08,21,14,39,28.80
2011,08,21,14,40,28.80
2011,08,21,14,41,28.80
2011,08,21,14,42,28.90
2011,08,21,14,43,28.90
2011,08,21,14,44,28.80
2011,08,21,14,45,28.70
2011,08,21,14,46,28.60
2011,08,21,14,47,28.40
2011,08,21,14,48,28.40
2011,08,21,14,49,28.40
2011,08,21,14,50,28.40
2011,08,21,14,51,28.50
2011,08,21,14,52,28.60
2011,08,21,14,53,28.60
2011,08,21,14,54,28.70
2011,08,21,14,55,28.70
2011,08,21,14,56,28.70
2011,08,21,14,57,28.60
2011,08,21,14,58,28.50
2011,08,21,14,59,28.40
2011,08,21,15,00,28.40
2011,08,21,15,01,28.40
2011,08,21,15,02,28.40
2011,08,21,15,03,28.30
2011,08,21,15,04,28.30
2011,08,21,15,05,28.30
2011,08,21,15,06,28.20
2011,08,21,15,07,28.20
2011,08,21,15,08,28.00
2011,08,21,15,09,28.00
2011,08,21,15,10,28.00
2011,08,21,15,11,28.00
2011,08,21,15,12,27.90
2011,08,21,15,13,27.90
2011,08,21,15,14,27.90
2011,08,21,15,15,27.90
2011,08,21,15,16,27.90
2011,08,21,15,17,27.80
2011,08,21,15,18,27.70
2011,08,21,15,19,27.60
2011,08,21,15,20,27.60
2011,08,21,15,21,27.60
2011,08,21,15,22,27.40
2011,08,21,15,23,27.40
2011,08,21,15,24,27.40
2011,08,21,15,25,27.40
2011,08,21,15,26,27.60
2011,08,21,15,27,27.60
2011,08,21,15,28,27.60
2011,08,21,15,29,27.60
2011,08,21,15,30,27.60
2011,08,21,15,31,27.60
2011,08,21,15,32,27.60
2011,08,21,15,33,27.60
2011,08,21,15,34,27.60
2011,08,21,15,35,27.60
2011,08,21,15,36,27.50
2011,08,21,15,37,27.40
2011,08,21,15,38,27.40
2011,08,21,15,39,27.40
2011,08,21,15,40,27.50
2011,08,21,15,41,27.60
2011,08,21,15,42,27.60
2011,08,21,15,43,27.60
2011,08,21,15,44,27.60
2011,08,21,15,45,27.60
2011,08,21,15,46,27.70
2011,08,21,15,47,27.70
2011,08,21,15,48,27.70
2011,08,21,15,49,27.80
2011,08,21,15,50,27.80
2011,08,21,15,51,27.80
2011,08,21,15,52,27.90
2011,08,21,15,53,27.90
2011,08,21,15,54,27.90
2011,08,21,15,55,27.90
2011,08,21,15,56,28.00
2011,08,21,15,57,28.00
2011,08,21,15,58,28.10
2011,08,21,15,59,28.10
2011,08,21,16,00,28.10
2011,08,21,16,01,28.10
2011,08,21,16,02,28.10
2011,08,21,16,03,28.00
2011,08,21,16,04,28.00
2011,08,21,16,05,28.10
2011,08,21,16,06,28.10
2011,08,21,16,07,28.10
2011,08,21,16,08,28.10
2011,08,21,16,09,28.10
2011,08,21,16,10,28.00
2011,08,21,16,11,28.00
2011,08,21,16,12,28.00
2011,08,21,16,13,28.00
2011,08,21,16,14,27.90
2011,08,21,16,15,28.00
2011,08,21,16,16,28.00
2011,08,21,16,17,28.00
2011,08,21,16,18,28.00
2011,08,21,16,19,28.00
2011,08,21,16,20,28.00
2011,08,21,16,21,28.00
2011,08,21,16,22,28.00
2011,08,21,16,23,28.00
2011,08,21,16,24,28.00
2011,08,21,16,25,28.00
2011,08,21,16,26,28.00
2011,08,21,16,27,28.00
2011,08,21,16,28,28.00
2011,08,21,16,29,28.00
2011,08,21,16,30,28.00
2011,08,21,16,31,28.00
2011,08,21,16,32,28.10
2011,08,21,16,33,28.10
2011,08,21,16,34,28.10
2011,08,21,16,35,28.20
2011,08,21,16,36,28.20
2011,08,21,16,37,28.30
2011,08,21,16,38,28.40
2011,08,21,16,39,28.40
2011,08,21,16,40,28.40
2011,08,21,16,41,28.40
2011,08,21,16,42,28.40
2011,08,21,16,43,28.40
2011,08,21,16,44,28.40
2011,08,21,16,45,28.30
2011,08,21,16,46,28.30
2011,08,21,16,47,28.30
2011,08,21,16,48,28.30
2011,08,21,16,49,28.40
2011,08,21,16,50,28.40
2011,08,21,16,51,28.50
2011,08,21,16,52,28.60
2011,08,21,16,53,28.60
2011,08,21,16,54,28.60
2011,08,21,16,55,28.60
2011,08,21,16,56,28.60
2011,08,21,16,57,28.60
2011,08,21,16,58,28.60
2011,08,21,16,59,28.60
2011,08,21,17,00,28.60
2011,08,21,17,01,28.60
2011,08,21,17,02,28.60
2011,08,21,17,03,28.60
2011,08,21,17,04,28.60
2011,08,21,17,05,28.60
2011,08,21,17,06,28.60
2011,08,21,17,07,28.60
2011,08,21,17,08,28.60
2011,08,21,17,09,28.70
2011,08,21,17,10,28.80
2011,08,21,17,11,28.80
2011,08,21,17,12,28.80
2011,08,21,17,13,28.80
2011,08,21,17,14,28.80
2011,08,21,17,15,28.70
2011,08,21,17,16,28.70
2011,08,21,17,17,28.60
2011,08,21,17,18,28.50
2011,08,21,17,19,28.40